カタログに戻る

DELTA 1 DEB

運用中SSO
NORAD 10718·DEBRIS·🇺🇸 United States

打ち上げ Jul 29, 1976 から Vandenberg Space Force Base

Loading…

次のパス (今後24時間)

TLE

最新Source: Space-Track

元期: Sep 14, 2026, 13:19 UTC

1 10718U 76077AP  26257.55487512  .00000011  00000-0  38844-3 0  9995
2 10718 101.6051 280.6791 0052186 263.7047 251.8056 12.42899132271870

AllMySatでDELTA 1 DEBをリアルタイム追跡

Download on the App Store